This is the latest recevied weather packets stored in our database for station/object K5GHS-1. If no packets are shown the sender has not sent any weather packets the latest 10 day(s).
| Time | Temp. | Humidity | Pressure | Rain* | Wind** | Luminosity | Snow |
|---|---|---|---|---|---|---|---|
| 1778028067 | 23.33° C | 70% | 1003.9 hPa | 0 mm | - | 2 W/m² | - |
| 1778027763 | 23.89° C | 69% | 1004.2 hPa | 0 mm | - | 3 W/m² | - |
| 1778027459 | 23.89° C | 69% | 1003.9 hPa | 0 mm | - | 3 W/m² | - |
| 1778027155 | 23.89° C | 69% | 1004 hPa | 0 mm | - | 6 W/m² | - |
| 1778026851 | 24.44° C | 68% | 1004.3 hPa | 0 mm | - | 10 W/m² | - |
| 1778026548 | 24.44° C | 69% | 1003.8 hPa | 0 mm | - | 12 W/m² | - |
| 1778026245 | 25° C | 68% | 1003.9 hPa | 0 mm | - | 15 W/m² | - |
| 1778025942 | 25.56° C | 67% | 1003.7 hPa | 0 mm | - | 24 W/m² | - |
| 1778025640 | 25.56° C | 66% | 1003.3 hPa | 0 mm | - | 42 W/m² | - |
| 1778025338 | 26.11° C | 66% | 1003.3 hPa | 0 mm | - | 40 W/m² | - |
| 1778025034 | 26.11° C | 65% | 1003.3 hPa | 0 mm | - | 32 W/m² | - |
| 1778024731 | 26.67° C | 64% | 1003.4 hPa | 0 mm | - | 32 W/m² | - |
| 1778024428 | 26.67° C | 64% | 1003.3 hPa | 0 mm | - | 32 W/m² | - |
| 1778024125 | 27.22° C | 63% | 1003 hPa | 0 mm | - | 48 W/m² | - |
| 1778023823 | 27.78° C | 62% | 1003.2 hPa | 0 mm | - | 45 W/m² | - |
| 1778023521 | 27.78° C | 61% | 1003.1 hPa | 0 mm | - | 36 W/m² | - |
| 1778023218 | 28.33° C | 60% | 1002.8 hPa | 0 mm | - | 43 W/m² | - |
| 1778022915 | 28.89° C | 58% | 1002.8 hPa | 0 mm | - | 35 W/m² | - |
| 1778022614 | 29.44° C | 55% | 1002.6 hPa | 0 mm | - | 47 W/m² | - |
| 1778022310 | 29.44° C | 53% | 1002.5 hPa | 0 mm | - | 65 W/m² | - |
| 1778022007 | 29.44° C | 51% | 1002.4 hPa | 0 mm | - | 75 W/m² | - |
| 1778021704 | 30° C | 51% | 1002.3 hPa | 0 mm | - | 68 W/m² | - |
| 1778021400 | 30.56° C | 49% | 1002.4 hPa | 0 mm | - | 71 W/m² | - |
| 1778021096 | 31.11° C | 48% | 1002.5 hPa | 0 mm | - | 77 W/m² | - |
| 1778020794 | 31.67° C | 47% | 1002.3 hPa | 0 mm | - | 98 W/m² | - |
* Rain latest hour (hover to see other rain measurements)
** Current wind speed in m/s (hover to see current wind gust speed)